Regional Weather Roundup
Issued by NWS

Home | Current Version | Previous Version | Graphics & Text | Print | Product List | Glossary On
Versions: 1 2 3 4 5 6 7 8 9 10 11 12 13 14 15 16 17 18 19 20 21 22 23 24 25 26 27 28 29 30 31 32 33 34 35 36 37 38 39 40 41 42 43 44 45 46 47 48 49 50
000
ASUS45 KTFX 311804
RWRMT
MONTANA REGIONAL WEATHER ROUNDUP
NATIONAL WEATHER SERVICE GREAT FALLS MT
1200 PM MDT MON AUG 31 2015

NOTE: "FAIR" INDICATES FEW OR NO CLOUDS BELOW 12000 FEET WITH NO
SIGNIFICANT WEATHER AND/OR OBSTRUCTIONS TO VISIBILITY.

MTZ001>007-043-311900-
WEST OF THE DIVIDE

CITY           SKY/WX    TMP DP  RH WIND       PRES   REMARKS
KALISPELL      CLOUDY    63  38  39 SW13G25   30.00S
MISSOULA       PTSUNNY   60  41  49 N3        30.07F
BUTTE          SUNNY     63  32  31 S12       30.09F
MULLAN PASS    PTSUNNY   45  38  76 VRB6      30.11S
DEER LODGE       N/A     63  37  39 CALM      30.10F
EUREKA           N/A     61  41  48 S15G21    29.99S
HAMILTON         N/A     64  39  39 NW1       30.06F
LIBBY            N/A     61  39  44 SW8       30.04R
$$

MTZ008-052>055-311900-
SOUTHWEST MONTANA

CITY           SKY/WX    TMP DP  RH WIND       PRES   REMARKS
BOZEMAN        SUNNY     66  36  32 VRB5      30.05F
DILLON         SUNNY     69  34  27 SW15G21   30.08F
W YELLOWSTONE  MOSUNNY   61  28  29 SW17G24   30.19S
$$

MTZ009-010-012-014-046-048-049-054-311900-
EAST SLOPES AND CENTRAL MONTANA

CITY           SKY/WX    TMP DP  RH WIND       PRES   REMARKS
CUT BANK       CLOUDY    62  35  36 W39G58    29.88R
GREAT FALLS    MOSUNNY   69  33  26 SW25G35   29.93F
HELENA         SUNNY     69  35  28 NW7       30.03S
$$

MTZ011-013-016-021-045-047-050-051-311900-
NORTH CENTRAL MONTANA

CITY           SKY/WX    TMP DP  RH WIND       PRES   REMARKS
HAVRE          MOSUNNY   71  34  25 MISG      29.86S
LEWISTOWN      MOSUNNY   68  33  27 W15G24    29.96F
N BAR RANCH      N/A     66  37  34 SE7       29.99S
CHINOOK          N/A     70  34  26 SW20G29   29.85F
FORT BENTON      N/A     70  36  28 S16G29    29.90S
$$

MTZ017>020-022>027-061-062-311900-
NORTHEAST MONTANA

CITY           SKY/WX    TMP DP  RH WIND       PRES   REMARKS
GLASGOW        SUNNY     71  40  32 W15       29.87F
JORDAN           N/A     72  33  24 W14       29.92S
SIDNEY         SUNNY     73  37  27 SW14G24   29.89F
WOLF POINT     SUNNY     72  42  34 W16G24    29.88F
PLENTYWOOD       N/A     70  39  32 W21G29    29.84F
$$

MTZ028>42-056>058-311900-
SOUTHCENTRAL AND SOUTHEAST MONTANA

CITY           SKY/WX    TMP DP  RH WIND       PRES   REMARKS
BAKER          SUNNY     71  41  33 W9        29.99F
BILLINGS       PTSUNNY   69  39  33 CALM      29.99F
LIVINGSTON     MOSUNNY   73  32  22 W14       30.00F
MILES CITY     SUNNY     72  42  34 S6        29.95F
FORSYTH          N/A     73  39  29 CALM      29.94F
$$

REGIONAL REPORTS...DAKOTAS

CITY           SKY/WX    TMP DP  RH WIND       PRES   REMARKS
WILLISTON      SUNNY     74  40  29 W15G23    29.87F
MINOT          SUNNY     74  43  32 W20G26    29.84S
DICKINSON      SUNNY     74  41  30 W15       29.93F
BISMARCK       PTSUNNY   76  52  43 NW12      29.90R
GRAND FORKS    PTSUNNY   80  63  55 N14       29.75R
FARGO          PTSUNNY   81  65  58 W12       29.76R
BUFFALO SD       N/A     71  43  36 NW9       29.94R
RAPID CITY     CLOUDY    70  55  59 N12       30.02R
$$

REGIONAL REPORTS...WYOMING/IDAHO/WASHINGTON

CITY           SKY/WX    TMP DP  RH WIND       PRES   REMARKS
GILLETTE       SUNNY     70  45  40 SE8       30.04F
SHERIDAN       SUNNY     74  45  35 E13       30.00F
BUFFALO WY     SUNNY     68  44  42 SE21G26   30.06F
CODY           SUNNY     75  27  16 S8        30.02F
YELLOWSTONE LA   N/A     59  27  29 SW8       30.26S
IDAHO FALLS    SUNNY     70  40  33 SW17G23   30.14S
SALMON         SUNNY     63  39  42 N3        30.06F
BOISE          SUNNY     69  43  38 W6        30.08F
SPOKANE        PTSUNNY   61  44  53 S20       30.04F
$$

REGIONAL REPORTS...ALBERTA

CITY           SKY/WX    TMP DP  RH WIND       PRES   REMARKS
$$

REGIONAL REPORTS...SASKATCHEWAN

CITY           SKY/WX    TMP DP  RH WIND       PRES   REMARKS
$$



USA.gov is the U.S. government's official web portal to all federal, state and local government web resources and services.